Theta_e
362 364 362 360 359 352 346 335 316 318 313 306 308 310 310 325 326 322 321 325 321 330 333 333 332 330 326 324 325 329 330 323 324 316 313 336 348 350 352 354 356 356 357 359 360 362 363 366 366 367 366 367 366 366 366 367 368 368 368 369 368 367 367 367 368 367 366 366 366 366 366 365 365 365 364 364 364 364 364 364 364 363 362 363 363 363 363 363 362 363 363 363 363 363 364 364 365
365 361 359 358 352 344 332 328 312 309 308 305 309 315 314 321 321 319 320 322 324 328 332 333 334 335 334 332 332 332 329 332 334 333 338 346 351 351 354 355 356 356 358 359 360 362 361 363 366 366 366 366 366 365 366 367 367 367 368 367 367 367 367 368 367 367 366 367 367 367 365 365 365 365 364 364 365 365 365 365 365 365 364 363 363 365 364 363 363 362 362 363 363 363 364 365 365
362 358 355 355 348 338 332 328 312 306 302 302 306 314 321 318 318 321 324 326 329 331 334 334 335 333 331 332 327 327 319 338 338 341 341 348 344 348 354 356 357 357 359 360 360 361 361 363 366 366 366 365 365 364 366 367 367 368 367 367 367 367 367 368 367 365 365 364 365 364 365 365 365 364 364 364 364 364 365 365 364 364 364 363 363 364 363 362 362 362 361 362 362 363 364 365 365
360 359 351 345 335 332 324 317 309 306 302 303 306 314 319 318 320 324 328 329 331 334 333 330 328 335 330 324 328 333 331 333 340 341 338 343 346 352 355 357 359 358 359 360 361 361 361 363 367 367 366 366 364 365 367 367 368 367 367 367 367 367 367 367 366 366 365 364 364 365 365 365 364 363 364 364 364 364 364 365 364 364 364 364 363 363 364 363 362 361 361 362 362 362 364 365 365
359 362 354 343 332 323 320 316 312 307 305 308 306 313 323 324 323 326 328 331 333 333 332 332 329 336 335 331 334 322 325 339 341 345 342 349 354 356 357 358 357 357 358 360 361 360 361 366 366 366 367 366 365 366 367 367 367 367 367 367 367 367 367 366 364 365 364 363 365 366 366 364 363 364 364 364 364 364 365 364 364 364 365 364 365 363 364 363 362 362 362 361 362 363 364 364 365
357 353 354 345 331 334 319 311 310 309 312 315 313 315 322 325 324 327 328 331 333 334 333 331 328 330 330 333 337 328 338 330 341 345 346 348 354 357 357 358 357 357 359 360 360 359 361 367 366 365 365 367 365 365 366 367 367 367 367 366 367 366 366 366 366 364 364 366 366 365 364 363 364 364 364 364 364 364 364 364 364 365 365 365 365 365 364 364 362 362 362 362 362 363 364 365 365
346 343 339 336 333 329 313 309 311 311 316 321 317 320 323 325 327 328 328 329 331 333 335 332 334 332 327 335 338 342 346 345 342 344 350 352 356 357 358 357 356 356 359 359 359 359 361 366 365 365 365 365 365 366 367 367 367 366 366 366 367 366 366 366 366 365 365 366 366 365 365 365 365 364 364 363 364 363 362 363 364 365 365 365 364 364 364 364 364 363 363 362 363 364 364 365 366
354 339 336 323 318 317 311 311 312 314 317 323 325 325 326 327 328 328 327 327 326 326 332 333 334 331 328 340 328 342 348 352 348 352 353 354 356 357 357 357 356 356 358 359 359 359 365 366 365 365 365 365 365 366 366 366 367 366 366 366 366 366 366 366 366 365 365 366 365 365 365 365 364 364 364 363 363 362 362 364 364 364 365 364 364 364 364 364 364 363 363 363 364 364 365 365 366
345 342 336 321 313 314 310 311 312 320 321 327 327 332 337 330 330 328 327 328 329 330 330 331 332 325 330 333 333 342 346 350 352 354 354 355 355 357 357 356 356 356 358 358 359 361 362 366 365 365 365 365 365 366 366 366 367 366 366 366 366 365 365 366 366 365 365 365 365 365 365 365 364 364 363 363 362 362 363 364 365 366 367 366 365 364 365 364 364 364 364 364 364 365 365 366 367
337 334 321 317 315 310 307 309 311 316 320 325 326 328 330 331 328 330 327 327 328 330 331 334 333 327 334 329 333 339 343 351 352 351 353 355 356 357 356 357 357 356 357 358 359 361 361 365 365 365 364 365 365 366 366 366 366 365 365 365 365 365 365 366 366 366 365 365 365 365 365 365 365 365 363 363 363 366 366 368 367 367 367 367 367 367 365 365 364 364 364 364 364 365 365 366 367
326 330 328 313 307 307 306 309 313 318 321 325 328 335 332 331 329 327 330 328 331 329 332 335 331 330 331 332 336 349 350 351 349 346 352 354 356 356 355 357 357 357 356 358 359 360 361 362 366 365 363 366 366 366 366 366 365 365 365 364 365 365 366 366 366 365 365 365 364 364 364 364 364 365 365 365 366 367 367 366 366 367 366 366 366 366 366 366 365 365 364 365 365 365 365 367 368
324 322 318 309 306 307 309 311 315 317 322 324 324 332 333 331 329 326 328 326 329 330 330 334 328 334 329 330 333 344 347 348 348 350 352 354 354 355 356 357 358 358 358 358 360 360 361 362 362 364 364 366 366 366 366 366 366 365 364 364 364 365 366 366 366 365 365 365 364 364 364 364 364 364 364 364 364 365 366 365 365 366 365 365 365 365 366 366 367 365 365 365 365 366 366 367 369
326 321 314 311 312 315 316 314 314 321 316 321 324 330 336 331 327 328 329 329 330 328 329 334 337 335 325 329 339 343 342 347 350 351 352 353 354 355 356 357 358 358 358 359 359 359 360 361 362 362 364 366 366 366 366 366 366 365 365 364 364 365 365 366 366 366 365 364 364 364 363 362 362 363 363 363 364 364 364 364 364 364 364 364 364 365 365 365 366 366 365 366 367 366 367 368 369
328 323 315 309 316 316 315 315 317 314 314 321 328 333 334 331 329 330 331 328 329 327 334 338 337 336 331 334 335 336 341 348 350 351 353 353 354 354 355 356 357 357 359 359 358 360 360 361 362 361 362 362 362 364 367 366 366 366 365 365 365 365 365 366 366 366 365 365 364 363 363 363 362 362 362 363 363 363 364 363 364 364 363 363 363 364 364 365 366 366 367 367 367 367 368 369 370
333 328 317 314 312 313 314 315 317 315 315 324 328 329 330 337 332 332 331 327 329 337 339 342 338 332 325 330 329 336 343 348 350 352 352 353 354 354 355 356 356 357 358 358 359 359 359 360 361 360 361 359 361 361 362 364 366 366 365 365 364 366 366 366 366 366 365 364 364 363 363 362 362 362 361 363 363 363 362 362 363 363 364 363 363 364 365 365 365 366 367 367 368 368 369 369 371
334 325 316 311 310 310 314 319 322 315 317 326 330 331 331 332 335 331 333 334 332 338 339 331 340 330 333 333 334 341 346 349 351 352 351 351 352 353 354 354 355 356 357 358 358 359 359 359 359 359 359 358 359 359 360 362 365 366 365 365 365 365 366 365 366 366 365 364 364 363 362 363 363 362 362 363 362 363 362 362 363 363 363 363 364 364 364 365 365 366 367 367 368 369 369 370 371
334 324 315 308 310 311 314 318 319 312 320 328 332 331 326 325 333 335 337 338 332 332 336 336 335 340 335 336 341 346 348 351 352 351 349 349 350 350 351 352 353 354 356 357 358 358 359 358 359 358 358 358 358 358 359 360 363 366 365 366 366 366 366 366 365 366 364 364 364 364 363 364 361 360 360 360 362 365 362 362 362 363 363 364 363 364 365 365 365 365 366 368 368 369 370 371 372
329 316 310 309 308 313 318 322 323 328 323 326 329 330 325 322 329 333 337 334 333 333 334 338 341 340 341 343 346 348 349 349 349 348 346 346 347 347 347 349 350 349 353 355 358 359 358 358 358 358 357 357 357 359 359 359 362 364 361 362 364 364 365 365 364 362 364 362 363 363 361 363 359 358 357 364 364 362 363 362 364 363 363 364 364 364 364 366 366 368 368 366 366 365 367 366 365
321 314 311 309 312 318 326 329 330 329 325 328 331 333 326 324 328 332 329 328 330 329 332 336 335 338 342 344 345 346 347 348 348 347 345 344 345 344 345 347 348 349 350 353 356 358 358 358 358 357 356 357 357 358 359 359 359 359 359 360 362 365 365 365 362 365 361 359 360 360 363 361 359 358 360 361 365 363 364 364 362 362 364 367 367 366 366 366 366 366 365 364 364 365 361 359 360
327 319 313 311 318 323 328 331 329 332 334 328 330 329 327 328 331 338 329 327 329 327 328 332 333 334 338 342 344 345 346 346 347 346 345 344 344 344 345 345 346 348 349 352 354 357 358 357 358 358 356 357 357 357 358 358 358 357 357 358 359 360 361 363 360 361 359 359 358 358 359 359 360 357 363 362 363 362 360 364 366 366 364 363 365 362 361 361 363 360 360 360 358 355 356 358 360
326 319 314 318 323 324 328 331 329 330 333 331 332 332 327 328 329 332 329 326 326 329 333 332 332 335 338 341 343 344 345 345 345 346 344 344 345 346 346 346 346 348 350 352 354 355 357 357 358 357 357 356 356 357 357 356 357 356 356 356 357 358 358 358 357 358 358 358 356 358 357 359 358 356 356 357 357 357 356 355 356 355 355 354 362 355 354 353 354 352 351 353 351 353 354 356 359
327 321 322 325 327 326 330 332 332 333 334 331 332 328 324 331 331 329 329 323 322 328 334 335 338 339 339 340 342 344 344 343 344 344 343 344 344 344 346 347 349 350 351 350 352 354 356 357 358 357 355 355 356 356 356 358 358 355 354 355 356 356 356 356 356 357 357 356 356 357 360 358 356 356 355 354 355 354 355 354 355 354 353 353 356 353 353 352 352 351 350 350 351 352 352 355 358
320 322 327 329 329 327 333 334 334 335 332 331 328 331 334 330 326 330 330 327 329 335 338 338 340 341 342 343 343 342 343 343 344 343 344 343 344 345 346 347 347 347 349 350 352 354 356 357 357 357 355 354 355 356 356 358 356 355 355 355 355 354 355 355 355 356 356 355 355 358 358 355 354 353 353 353 354 354 354 354 354 354 353 353 354 353 352 352 351 351 350 350 350 351 352 353 357
323 320 327 329 333 330 334 335 336 334 330 329 333 339 332 328 323 329 328 330 334 338 339 341 342 343 343 341 342 341 342 343 343 345 345 345 345 346 347 347 348 349 349 350 351 353 355 355 357 356 354 354 354 355 355 355 356 355 355 359 358 358 355 354 353 354 355 355 356 356 360 355 354 353 353 353 353 353 354 355 354 354 354 354 354 354 352 352 351 351 350 349 349 350 349 350 351
324 320 326 330 332 333 334 335 336 335 333 334 335 332 327 328 326 330 328 330 336 337 340 341 341 341 341 341 341 341 342 343 344 345 346 347 347 348 348 348 349 349 348 349 350 351 353 355 356 355 354 354 354 355 355 355 355 355 356 356 355 359 355 354 353 355 354 356 356 357 359 355 353 353 352 353 353 353 354 354 354 354 354 354 354 353 353 352 351 350 350 349 349 349 348 348 349
326 324 329 330 330 333 334 333 333 333 332 334 330 327 329 333 337 330 331 335 337 339 340 340 340 339 339 340 341 341 341 342 344 344 344 346 347 346 346 347 348 347 348 349 349 350 352 354 354 354 354 354 354 354 354 354 355 355 355 355 355 358 355 354 354 354 354 354 354 356 357 357 354 353 353 353 353 354 355 355 355 354 353 354 354 352 353 352 351 350 350 349 348 348 348 348 350
328 328 330 329 331 331 332 330 330 332 332 333 328 324 328 335 329 319 333 336 337 338 338 339 338 337 338 339 340 341 341 342 343 344 344 345 345 345 346 347 347 347 349 348 349 350 353 353 353 354 354 356 354 354 353 354 355 354 355 355 355 356 356 355 355 354 354 354 354 355 356 357 357 354 354 353 354 354 355 355 354 354 353 354 354 353 354 353 352 351 350 349 349 349 348 349 348
331 332 329 327 328 332 331 330 329 329 327 332 328 326 329 332 328 320 330 336 337 335 336 336 337 337 338 339 340 341 341 343 344 344 342 342 343 344 345 345 346 347 348 348 349 351 352 352 353 353 353 355 354 354 355 354 354 354 355 355 355 355 356 354 354 353 355 354 355 354 354 355 357 356 355 354 354 354 354 354 354 353 352 353 353 353 353 353 352 351 351 350 350 349 349 348 349
331 327 320 321 323 324 328 327 328 327 326 333 332 324 321 326 323 328 333 336 336 335 334 335 335 336 337 338 339 340 340 342 343 343 343 344 345 346 345 347 347 347 348 349 350 351 351 352 352 353 353 354 353 353 354 354 355 355 354 354 355 356 356 355 353 353 353 354 354 355 354 354 357 356 356 355 356 356 356 355 354 354 353 353 353 353 353 353 352 350 349 349 348 348 347 348 349
330 325 319 318 315 314 321 330 328 326 328 332 329 308 309 318 327 330 335 335 335 333 333 334 335 335 336 337 338 339 341 341 341 342 344 345 345 345 345 347 348 348 347 349 350 350 352 353 354 353 353 352 353 353 354 354 354 355 355 355 356 356 355 354 355 354 354 354 355 355 355 354 356 356 356 356 356 356 356 356 355 354 354 353 353 353 352 351 350 348 347 347 349 350 346 347 345
319 322 318 312 308 307 318 327 326 324 331 331 324 308 308 313 320 329 334 335 332 331 332 333 334 335 335 336 337 338 339 341 342 343 343 345 345 345 345 347 348 348 349 348 348 350 352 352 354 352 354 352 354 353 354 353 354 355 355 354 355 355 354 354 354 354 354 355 355 355 355 355 356 356 356 356 356 356 355 355 355 354 354 354 353 353 352 351 349 348 347 346 346 346 345 346 346
318 311 305 306 309 306 314 325 325 322 327 331 321 308 312 316 320 329 333 334 333 330 331 332 333 334 335 336 336 337 338 340 342 343 343 344 345 344 344 345 348 348 348 348 349 350 350 352 354 352 353 352 353 353 353 353 354 355 355 357 354 355 355 354 354 355 354 355 355 355 355 356 356 356 357 357 356 356 355 355 355 355 354 354 353 353 352 350 349 347 348 347 345 344 348 345 346
308 309 304 305 306 306 310 320 327 326 328 330 320 310 312 315 321 327 333 332 332 330 330 331 332 333 334 335 336 337 337 338 340 342 343 343 344 344 344 344 346 348 348 348 348 349 350 351 354 352 352 352 352 353 353 353 354 354 354 355 355 355 354 354 354 355 355 355 355 355 355 356 357 357 357 358 357 356 356 355 356 355 355 353 352 351 350 351 348 347 348 351 348 345 344 343 344
303 308 307 306 307 305 305 313 322 325 325 321 326 317 316 317 322 327 332 332 330 329 330 331 332 333 334 335 335 336 336 336 337 339 341 343 343 344 344 347 345 347 348 348 348 349 349 351 352 352 353 353 352 353 353 353 353 354 354 355 357 355 355 355 355 355 355 355 355 355 356 357 358 358 358 358 357 357 357 356 356 355 353 353 352 350 349 348 348 347 347 348 349 347 344 343 342
302 303 305 305 307 309 308 308 314 324 324 320 321 320 321 322 324 325 331 332 330 329 330 331 331 332 333 334 334 335 336 336 337 340 342 342 343 343 343 344 344 346 347 348 348 349 349 350 352 353 353 353 352 353 353 353 353 353 354 354 355 354 355 356 356 355 355 355 355 356 357 357 359 358 358 358 357 357 357 356 355 354 353 352 351 349 348 348 348 347 345 347 349 350 347 346 345
307 306 306 305 303 304 306 312 317 324 320 317 319 318 320 322 323 324 328 331 329 329 330 330 331 332 333 333 334 335 335 336 339 341 343 343 343 343 343 344 344 344 345 347 348 348 348 349 350 351 352 352 352 352 353 352 352 352 351 352 352 354 354 355 356 355 356 355 356 356 357 357 358 359 358 358 357 357 356 355 353 353 353 352 349 348 347 346 346 347 347 345 346 347 350 350 344
309 309 309 307 306 307 310 312 315 324 318 317 318 320 319 320 321 321 326 329 329 329 328 329 330 331 332 333 333 334 335 336 339 341 343 343 343 343 343 343 343 344 344 345 346 346 347 348 349 349 351 352 351 350 351 350 349 349 350 350 350 352 353 354 355 355 355 356 356 356 357 357 357 357 359 358 357 358 357 355 354 354 354 354 352 350 350 348 347 347 348 353 350 348 343 341 341
308 306 305 304 307 305 310 312 317 324 317 312 317 317 318 320 322 321 323 327 326 327 328 328 329 331 332 332 333 333 335 337 338 338 341 342 343 343 343 342 344 342 343 344 344 345 347 348 348 349 351 351 351 351 351 351 351 350 350 350 351 351 353 354 353 354 354 355 356 356 356 356 356 356 359 358 358 356 355 355 355 355 355 356 356 355 353 355 353 350 347 345 346 345 341 343 339
305 306 303 302 303 307 310 314 319 322 317 310 314 315 316 319 321 322 322 325 327 329 329 329 329 329 330 331 332 333 334 333 334 336 338 340 341 342 342 342 342 343 343 344 345 345 346 347 349 350 351 351 351 352 352 351 351 353 352 351 352 351 354 356 356 356 356 354 355 355 356 356 355 355 355 359 357 357 356 355 355 356 357 357 357 353 351 350 350 349 347 345 344 343 345 344 341
302 301 300 300 305 303 300 306 318 320 314 309 312 312 313 315 317 320 323 324 326 328 329 329 330 329 329 330 331 332 332 332 332 333 335 338 339 340 341 341 342 343 343 343 344 345 346 348 348 349 350 351 351 352 354 353 353 353 354 353 353 353 352 355 356 356 354 354 353 354 355 355 355 354 355 355 358 357 357 356 356 355 356 357 354 352 350 348 349 350 348 347 345 342 340 340 354
302 303 301 302 302 304 304 302 314 316 318 314 309 305 305 306 311 312 317 324 324 326 328 327 329 331 332 332 332 332 331 332 332 332 334 336 337 338 339 341 342 341 342 343 343 345 346 347 348 349 350 351 351 354 354 353 354 352 352 352 354 352 352 352 351 349 350 353 353 352 353 355 355 355 355 355 357 357 357 357 356 356 355 355 354 351 348 347 347 349 347 349 344 343 339 341 345
299 303 304 305 305 304 313 313 310 305 305 314 309 295 296 300 304 310 313 318 320 324 325 326 327 328 329 329 331 332 333 333 332 332 334 335 337 338 339 340 341 341 341 343 344 346 347 347 348 349 350 351 351 352 354 353 353 350 348 346 345 345 345 345 345 346 346 348 350 353 353 354 354 355 355 355 356 359 357 357 357 356 355 356 355 351 348 347 349 350 348 347 344 342 345 341 339
299 301 305 305 305 304 308 312 306 301 298 305 313 301 295 299 302 307 310 316 317 320 324 326 327 327 328 329 330 331 331 332 333 334 334 335 336 337 338 339 340 340 342 343 344 345 346 347 348 349 350 350 351 352 353 353 351 350 348 348 347 345 345 345 348 349 349 349 351 351 352 353 354 354 355 355 356 358 358 357 356 356 355 355 358 354 349 348 348 348 350 346 345 350 343 343 340
297 302 305 305 304 304 306 310 307 301 309 309 311 303 297 297 304 306 309 313 315 317 320 324 326 327 328 329 330 331 331 332 332 332 334 335 336 337 337 339 340 341 342 343 343 344 345 346 348 348 350 351 351 352 352 352 350 349 348 348 348 346 345 345 346 348 349 351 349 350 351 351 353 354 354 355 356 356 359 358 357 356 355 355 355 354 349 348 348 350 353 348 349 349 344 343 341
299 304 303 302 303 304 305 308 305 306 306 297 302 307 301 298 303 307 313 310 312 314 317 321 325 326 328 329 329 330 332 332 333 332 333 334 335 336 337 338 340 341 342 342 342 343 345 346 348 348 349 350 350 351 352 351 352 350 348 348 347 348 346 346 347 349 349 350 347 348 348 349 350 353 354 354 355 356 359 358 357 355 354 354 360 355 351 349 347 346 349 347 347 348 344 344 346
303 305 305 304 305 307 307 305 303 302 300 295 299 305 297 296 299 301 311 310 310 313 316 320 324 326 327 328 329 330 332 333 333 334 334 335 336 337 338 339 339 340 341 343 343 343 344 345 346 347 347 349 350 350 352 350 351 351 348 347 346 346 347 346 345 344 346 346 346 346 347 348 348 350 352 354 354 355 355 358 357 355 354 353 359 358 353 351 349 348 346 345 346 347 346 351 343
304 303 302 299 299 300 301 300 300 298 295 297 301 306 302 294 298 302 306 308 312 313 315 319 322 325 327 329 330 330 331 332 332 333 334 335 337 337 338 337 338 339 340 341 342 342 343 344 345 346 347 348 350 350 351 350 350 350 348 347 346 346 346 345 343 342 343 344 344 344 345 346 347 348 350 353 353 354 354 356 356 355 354 357 359 358 355 351 349 347 346 347 352 348 347 350 353
303 300 299 296 298 297 294 295 296 293 288 295 299 305 304 294 294 298 307 313 316 313 313 316 320 323 326 328 329 330 331 332 332 332 333 334 335 336 337 336 337 338 339 339 341 342 343 343 344 345 346 347 348 349 350 350 349 349 349 348 347 347 346 345 343 343 342 342 343 343 345 346 347 348 351 351 352 352 354 353 355 355 355 354 354 357 356 354 353 349 347 346 347 348 349 354 351
298 298 296 295 287 292 289 291 293 291 290 295 300 304 300 299 303 307 308 308 311 316 317 317 320 322 325 327 329 330 331 332 332 332 332 333 334 334 335 335 336 336 337 338 340 341 342 343 344 344 344 346 348 348 349 349 349 349 349 348 347 347 346 346 345 344 344 343 343 344 344 344 346 347 349 349 350 351 353 352 351 351 352 354 354 354 355 355 354 351 349 348 350 350 350 351 349
297 297 291 290 289 287 283 283 287 286 292 296 298 303 296 298 301 306 310 313 314 313 317 320 320 322 324 327 329 330 331 331 332 332 332 333 334 335 336 336 336 336 337 338 339 341 341 342 343 344 344 346 347 348 348 348 348 349 349 348 348 348 346 346 345 345 345 344 344 344 344 345 345 346 347 349 351 351 352 352 352 352 353 353 355 354 354 354 354 352 351 351 349 351 351 350 349
296 296 296 295 289 288 285 284 287 289 291 294 298 296 291 296 300 307 307 310 312 314 314 318 322 322 325 327 329 330 330 330 331 332 332 333 335 336 336 336 336 336 337 338 339 340 341 341 343 344 344 345 347 347 348 347 348 348 348 349 348 347 347 347 346 347 346 345 344 344 345 346 346 347 348 350 352 352 352 352 352 352 352 352 353 354 354 354 355 354 354 351 352 350 351 351 349
298 296 296 294 297 294 292 286 289 289 289 292 295 295 296 298 303 310 311 316 319 321 319 321 323 323 325 326 327 328 329 329 330 332 332 333 335 336 336 336 336 336 338 338 339 340 341 341 343 343 343 344 346 348 347 347 347 348 348 348 348 348 350 348 348 350 348 347 346 345 345 347 347 348 350 351 351 352 351 351 353 353 353 353 353 353 354 355 354 353 352 353 351 353 353 352 352
298 298 296 297 298 297 293 298 298 296 289 289 292 295 296 300 301 305 307 317 318 321 320 322 322 324 325 326 327 328 329 328 329 331 331 332 334 336 337 337 336 337 337 338 339 340 341 342 342 342 343 344 345 346 346 346 347 346 346 347 347 347 347 347 346 347 348 348 348 347 346 347 348 349 349 351 351 352 351 351 351 352 353 354 354 354 354 354 354 354 353 352 352 353 357 354 353
297 295 297 301 301 298 295 290 288 287 286 286 292 294 292 292 293 303 304 310 315 319 320 321 321 324 324 326 327 328 329 329 329 331 332 333 334 336 337 337 337 337 338 338 340 340 344 344 344 345 344 344 344 345 346 346 346 346 346 346 347 347 347 348 348 347 348 349 348 348 348 347 347 349 350 350 351 351 351 354 351 351 352 354 354 354 354 354 355 353 352 352 352 353 353 355 355
301 300 305 299 295 293 290 292 286 286 285 286 288 293 296 294 296 300 302 304 308 316 318 319 321 323 324 326 327 329 329 329 329 330 331 332 333 335 337 337 338 338 339 340 343 343 344 344 344 344 344 345 345 346 347 347 347 347 347 347 347 347 348 348 349 349 349 349 348 349 348 348 348 349 351 351 351 350 350 350 351 350 351 353 354 353 354 354 354 353 353 352 352 352 351 351 353
305 305 302 303 297 293 291 293 290 290 286 287 285 290 293 298 298 301 303 303 307 315 318 319 320 323 324 325 327 328 329 329 329 329 331 332 333 335 337 337 337 338 339 341 343 343 343 344 345 344 345 346 346 347 348 347 347 348 348 349 349 350 350 348 349 350 349 349 350 349 349 349 348 350 350 349 349 349 350 349 349 349 349 350 352 353 354 353 352 352 351 350 352 351 350 350 350
298 300 298 298 299 303 297 297 293 291 286 285 286 286 289 296 302 305 306 307 308 315 320 320 320 323 324 325 328 329 330 329 329 330 330 332 333 334 337 338 339 340 342 343 342 342 343 344 344 345 344 345 345 347 348 348 348 348 349 350 350 350 350 351 350 351 350 350 351 353 351 350 351 350 351 350 349 349 349 349 349 350 349 350 351 351 351 352 351 351 350 350 351 351 350 350 351
300 298 299 298 297 295 292 293 296 293 292 287 286 288 291 298 312 309 309 312 313 314 321 321 321 321 322 324 327 329 330 330 330 330 331 332 333 334 336 338 339 340 341 341 342 343 343 343 343 344 345 345 345 346 347 348 349 348 348 349 352 354 353 353 352 353 352 352 352 353 353 353 351 351 351 350 350 349 349 348 348 348 349 349 349 350 350 350 349 349 349 348 348 350 349 349 349
Wind_Speed
2 0 1 1 2 2 0 2 0 1 2 1 2 3 1 0 1 1 2 2 4 2 2 9 9 6 2 3 4 4 1 8 1 5 4 0 4 10 8 11 10 9 8 6 4 6 7 10 11 13 15 15 16 16 16 15 14 14 14 14 14 13 13 12 12 11 11 11 10 10 10 10 10 9 8 8 8 7 6 6 6 5 5 5 6 8 8 8 8 8 8 8 7 7 7 7 7
0 1 1 1 0 1 0 1 2 2 4 2 1 0 3 2 1 2 4 3 2 4 5 8 6 7 8 7 7 4 4 5 1 2 2 4 8 6 9 12 12 12 8 6 5 6 6 9 12 12 14 15 15 16 15 14 13 13 13 13 14 13 12 12 11 11 11 10 10 10 9 9 9 8 7 7 7 7 7 6 6 5 4 4 6 7 7 7 7 7 7 7 7 7 7 8 8
0 1 3 3 2 2 1 1 1 1 3 2 2 2 1 1 1 1 3 1 4 8 8 7 7 4 4 3 2 1 2 3 3 4 5 10 13 8 9 11 10 10 9 6 5 6 6 8 12 11 12 15 15 15 14 13 13 13 13 13 13 12 12 11 11 10 10 10 9 9 8 8 8 6 6 6 6 6 6 5 5 4 4 4 5 6 7 6 6 6 6 7 7 7 7 8 8
1 0 1 1 1 2 0 2 2 3 2 2 1 1 1 1 3 0 1 3 8 11 7 7 6 2 3 2 1 4 3 4 2 8 8 11 3 11 10 12 10 8 7 5 6 6 6 10 13 12 12 13 15 14 13 13 13 13 13 13 12 12 11 11 10 10 10 9 8 7 7 7 7 6 5 5 6 6 5 5 4 3 4 4 5 5 6 5 5 5 6 6 6 7 7 8 9
0 1 2 0 1 1 1 1 3 1 1 2 1 3 2 2 2 3 2 6 6 9 7 4 4 3 2 4 1 0 4 4 5 3 6 3 7 9 11 11 11 9 8 6 6 7 7 15 14 13 12 13 14 14 14 14 13 12 12 13 12 11 10 11 10 9 9 8 7 7 6 6 6 5 4 4 4 5 5 4 4 4 4 4 4 5 5 5 5 5 6 6 7 7 8 9 9
1 0 1 1 1 1 2 2 3 2 1 2 1 1 2 2 2 5 6 5 4 4 4 3 3 4 3 3 0 1 4 3 6 2 9 6 12 12 12 10 10 10 8 6 6 6 7 16 15 15 14 13 15 15 14 14 13 13 12 12 12 11 10 10 10 9 8 8 7 6 6 6 5 4 3 3 3 4 4 4 4 4 3 4 5 5 5 5 5 5 6 7 7 8 8 9 10
1 1 2 2 0 2 3 3 1 0 1 2 1 2 1 2 5 9 6 7 2 5 3 3 7 7 5 0 2 1 1 4 6 4 5 11 12 12 13 10 11 10 9 7 6 5 8 18 17 15 15 14 15 15 15 14 13 13 12 12 11 11 10 10 9 8 7 7 6 5 5 5 5 3 2 2 3 3 3 4 4 3 3 3 4 5 5 4 5 6 6 7 7 8 9 10 10
0 1 1 2 1 2 2 0 1 1 1 3 1 1 1 4 5 6 4 2 4 4 1 5 3 5 2 1 2 2 4 2 6 8 11 12 12 12 11 12 11 11 9 7 5 5 12 18 17 16 15 15 15 15 14 14 13 13 13 12 11 10 10 10 9 8 7 6 5 5 4 4 4 3 1 1 1 2 4 4 4 3 3 3 3 4 5 5 5 6 7 8 8 8 9 10 11
2 2 0 3 2 2 2 2 1 1 3 1 2 2 1 4 4 5 3 1 2 3 5 4 1 2 3 6 3 4 4 7 9 11 12 12 13 13 9 12 12 10 9 8 6 6 7 17 17 17 16 16 15 15 14 14 13 13 13 12 11 11 10 9 9 8 7 6 5 4 4 4 4 2 1 0 1 3 3 3 3 4 5 5 5 5 5 5 6 7 8 8 9 9 9 10 11
0 1 1 2 2 4 1 2 3 0 1 2 1 1 2 3 3 4 4 3 3 5 2 3 2 5 6 6 4 3 5 10 12 13 12 12 12 12 10 11 12 13 10 8 7 6 6 14 19 17 17 16 15 15 14 14 14 13 12 12 11 10 10 9 9 8 6 6 5 4 3 3 3 2 1 1 2 3 4 6 6 5 6 6 7 7 7 7 7 7 8 8 9 9 10 11 11
2 3 2 2 3 2 2 1 1 3 3 3 0 2 1 4 4 2 2 4 3 4 3 5 5 8 3 4 2 3 9 12 14 17 15 14 13 13 10 10 10 11 11 9 7 5 7 9 17 18 17 16 15 14 14 14 14 13 12 12 11 10 10 9 8 8 6 5 5 4 3 3 3 2 2 2 2 3 4 5 5 7 6 6 7 8 8 8 9 9 9 9 10 9 10 11 11
2 2 3 3 2 2 2 2 1 2 2 1 1 2 1 2 2 3 5 7 3 3 3 3 6 5 5 4 2 6 11 12 12 14 16 13 10 10 9 8 9 9 9 9 8 6 6 7 8 14 17 16 15 15 13 14 13 12 12 12 11 10 10 9 9 8 6 6 5 4 4 3 2 1 0 1 3 4 4 4 5 6 6 6 7 8 8 9 9 10 10 10 10 10 11 11 12
1 0 3 4 2 1 0 1 0 1 2 1 0 0 1 1 2 3 4 4 4 5 1 2 10 2 3 2 4 9 12 12 11 14 14 9 9 9 8 9 9 8 8 7 8 6 5 6 6 8 10 17 15 14 13 13 12 12 11 11 10 10 9 9 8 8 7 6 5 4 4 3 2 1 0 2 3 4 4 4 5 5 6 6 7 8 9 9 9 10 11 11 12 12 11 12 12
0 2 2 1 0 2 2 0 1 3 1 1 1 1 1 1 2 6 6 6 5 4 0 8 6 6 5 6 6 7 8 12 14 15 10 10 8 8 9 8 10 8 8 8 8 7 6 6 6 6 9 8 6 11 13 13 12 12 12 11 11 10 9 9 8 8 7 7 5 5 4 3 3 2 2 2 4 5 4 4 4 5 6 6 7 8 9 10 10 10 12 12 13 13 12 12 13
0 1 3 2 1 1 1 2 4 2 2 0 1 1 2 3 1 6 10 7 2 3 6 5 3 5 5 8 6 7 9 13 14 14 10 10 9 9 9 8 9 9 8 8 7 7 6 6 6 6 6 6 6 5 5 9 13 12 11 11 11 10 9 9 9 8 8 7 6 6 5 5 4 4 4 4 4 5 5 5 4 4 5 6 7 8 9 11 10 10 12 13 13 13 13 13 13
2 3 3 1 0 2 2 2 1 2 1 2 1 3 0 1 1 8 3 4 4 3 7 3 1 1 4 9 5 12 13 13 12 13 11 11 9 8 8 8 9 8 7 7 7 6 5 5 5 5 5 5 5 4 5 5 10 13 12 12 11 11 10 10 10 9 8 7 7 7 7 5 5 3 5 3 4 6 5 4 4 5 6 7 7 8 9 11 11 11 12 13 14 14 14 13 13
1 2 1 2 1 1 2 2 3 3 1 1 1 1 1 1 1 2 3 7 9 7 1 1 3 2 6 3 11 14 14 13 13 14 12 10 9 8 7 6 6 7 7 7 6 6 6 6 6 5 4 6 5 5 5 5 7 13 11 13 13 12 10 10 10 10 8 7 7 6 7 4 2 1 2 3 4 3 5 6 5 5 6 6 7 8 9 10 11 11 12 14 15 15 16 15 13
1 1 3 0 1 1 3 3 5 0 0 1 1 1 2 3 1 2 6 5 6 5 3 3 8 7 7 8 14 15 14 14 15 15 12 11 9 10 10 8 8 9 8 7 6 6 6 5 6 5 4 5 6 5 4 4 3 9 5 5 5 7 8 9 7 4 5 2 7 5 3 1 2 1 0 2 2 2 4 7 7 7 8 8 8 9 10 11 11 12 12 14 15 15 17 8 6
2 1 2 2 3 2 4 2 2 1 2 2 1 1 1 1 4 2 3 4 8 4 2 4 8 8 10 13 15 16 15 14 15 14 15 13 11 12 10 9 9 8 8 7 6 8 6 5 5 6 5 5 6 5 4 4 4 2 4 4 3 7 4 5 3 3 2 3 1 1 1 0 1 2 1 1 2 5 5 7 6 6 7 9 10 10 11 11 12 12 13 13 15 15 8 5 4
1 2 1 2 4 2 2 3 4 4 0 2 2 2 2 0 2 1 3 8 6 8 6 2 6 10 13 13 15 15 15 15 13 13 14 13 11 11 11 11 9 9 9 8 8 6 6 6 7 6 6 5 5 4 4 4 4 2 3 3 3 3 3 3 3 3 3 3 2 1 1 2 1 1 3 5 4 3 4 7 8 9 9 9 11 7 8 9 12 11 11 12 9 5 5 5 4
1 2 2 1 1 0 2 3 3 3 1 1 1 2 0 2 3 3 8 7 3 3 8 12 12 15 16 17 16 14 14 15 14 13 14 14 10 8 9 9 9 8 7 6 5 7 8 7 6 5 5 4 4 4 4 4 4 3 3 4 3 3 3 2 3 3 3 3 3 1 2 2 1 1 1 2 2 3 3 3 3 3 4 4 7 6 4 4 5 5 5 6 5 5 5 5 4
3 3 2 2 0 1 2 6 2 1 1 0 2 0 1 1 1 4 11 7 8 10 11 6 13 16 18 18 17 15 15 16 15 14 15 16 16 12 9 8 7 6 6 7 8 7 8 7 6 6 5 5 5 5 5 4 4 4 4 3 3 3 3 3 2 3 3 3 3 4 2 3 2 2 1 1 2 2 3 3 2 2 3 3 4 4 4 4 5 4 5 5 5 4 5 6 5
0 1 2 2 2 1 0 2 3 3 1 1 0 2 1 1 1 3 10 8 1 2 4 8 13 16 16 16 17 17 17 16 15 15 15 15 14 12 12 9 9 9 8 7 7 7 7 7 6 7 6 5 5 4 4 4 4 3 4 3 4 3 3 3 3 3 3 3 3 3 3 3 3 2 2 1 2 1 2 3 3 2 3 3 4 5 5 4 5 5 5 5 5 5 6 6 6
2 1 1 0 1 2 2 2 5 3 5 2 2 3 1 1 1 1 5 0 1 2 11 11 11 12 15 15 15 17 16 16 16 13 13 13 13 12 11 10 8 6 7 7 7 7 7 8 7 8 6 6 5 5 4 4 4 4 4 4 4 4 4 4 3 3 3 3 3 3 2 2 3 3 3 2 2 1 2 3 3 4 3 4 4 5 6 5 5 5 5 5 6 5 6 7 5
1 1 2 1 0 1 1 1 1 2 3 2 3 1 2 2 2 1 3 2 5 8 11 13 13 13 12 13 14 14 13 12 12 12 9 7 8 9 8 6 7 7 9 9 8 8 8 8 9 9 8 7 5 5 5 4 4 4 4 4 4 4 4 4 4 3 3 3 3 3 2 3 3 3 3 3 2 2 2 2 4 4 4 4 4 5 5 5 5 5 4 5 5 5 5 6 5
4 4 2 1 0 1 1 0 0 1 0 1 0 3 4 3 4 0 3 2 8 11 12 14 14 14 14 14 13 14 13 14 12 12 11 8 9 11 10 9 8 9 10 9 8 8 8 8 10 9 9 7 6 6 5 5 5 5 5 5 4 4 4 4 4 4 3 3 3 3 3 3 3 3 4 3 2 3 3 4 5 5 4 4 4 5 5 5 5 5 5 5 5 5 5 5 5
3 3 3 3 1 0 0 2 0 0 1 0 1 2 1 2 2 2 2 6 10 11 12 13 15 15 13 12 11 11 13 13 14 11 9 9 9 10 10 9 10 9 8 9 8 8 7 9 9 9 9 7 6 7 6 6 5 5 6 5 5 5 4 4 4 4 3 4 4 4 4 5 4 4 4 3 2 3 3 5 5 5 4 4 4 5 5 5 5 4 4 5 5 5 5 5 4
3 5 3 2 4 1 0 0 2 0 2 3 2 2 1 1 1 3 4 6 11 13 12 12 12 13 12 13 12 10 10 10 9 10 13 13 10 10 11 10 10 9 10 10 8 7 8 10 10 10 9 8 8 7 7 7 6 6 6 5 5 4 5 4 4 4 4 4 4 4 5 4 5 4 4 4 3 3 4 5 5 5 5 5 4 4 5 6 5 4 5 5 5 5 6 5 4
1 3 1 3 3 2 2 3 2 3 2 3 2 1 3 1 3 2 7 8 10 12 12 12 12 11 11 11 11 10 11 11 9 9 12 11 9 9 12 11 11 10 8 10 9 9 10 10 9 10 10 9 9 9 8 7 6 6 6 6 5 5 5 5 5 5 5 4 5 5 5 5 4 5 4 4 5 4 4 5 5 6 6 5 5 5 6 5 4 4 5 4 4 5 5 5 4
2 4 1 3 4 3 5 1 2 3 1 2 1 3 6 6 4 2 7 10 8 9 10 11 9 9 10 10 10 10 10 10 11 10 10 10 10 11 12 12 12 10 8 7 9 10 9 7 7 7 9 10 10 8 8 7 7 6 6 6 6 6 5 5 5 5 5 5 5 6 5 5 4 4 4 4 4 4 5 5 5 5 6 6 4 4 4 4 4 3 4 5 4 4 5 6 5
1 0 3 1 2 2 2 2 3 3 1 1 1 3 6 6 5 4 6 11 14 11 11 11 9 9 9 9 10 10 11 11 13 12 12 12 11 10 12 11 12 11 8 9 11 12 11 9 8 7 9 10 10 9 9 8 7 6 6 6 6 7 6 5 5 5 6 4 4 5 5 5 5 5 5 4 4 4 5 5 5 6 6 5 4 3 3 3 3 3 3 5 5 5 5 5 5
1 1 2 3 1 4 5 1 6 6 0 1 3 3 8 8 4 5 7 8 11 11 11 11 10 10 10 9 10 10 10 11 12 13 13 13 12 11 11 12 12 12 12 11 11 10 11 10 10 9 10 11 10 10 9 8 8 7 6 6 6 6 6 6 6 6 4 4 6 5 5 6 5 5 6 5 5 5 5 6 6 6 5 3 3 2 2 4 3 3 3 3 4 6 5 7 4
4 1 3 2 0 5 6 1 3 2 3 1 4 5 4 3 2 4 5 10 10 10 10 11 11 12 11 10 9 9 9 10 10 12 13 12 11 11 11 11 12 13 12 11 11 11 11 11 11 11 11 12 11 10 9 8 7 7 7 7 7 7 7 7 5 4 5 5 5 6 6 6 6 6 6 5 5 5 5 5 6 5 4 3 3 2 2 3 3 3 4 3 3 5 6 7 6
2 1 2 3 1 1 2 3 2 3 2 3 0 2 5 2 1 1 6 9 8 8 11 11 11 10 11 10 10 9 10 10 12 12 13 13 11 13 11 11 11 12 11 12 12 12 12 11 10 11 10 10 9 9 9 8 7 7 6 6 7 8 8 6 5 5 4 4 5 6 7 6 5 6 6 5 5 5 5 6 6 5 3 3 3 2 3 3 3 3 5 4 4 4 5 6 7
1 1 3 5 1 4 7 1 2 6 1 3 1 5 10 9 2 3 6 8 8 10 11 12 12 11 11 10 11 11 10 11 12 12 13 13 12 12 11 11 10 11 10 12 11 11 9 9 8 9 9 9 9 8 8 7 7 6 5 6 7 7 6 5 5 6 5 4 6 6 6 6 6 6 6 5 5 5 6 6 5 4 3 3 3 3 3 3 4 4 4 5 3 4 5 6 6
5 4 4 2 6 4 3 6 2 10 5 5 5 6 9 8 6 4 4 8 10 9 7 7 9 10 10 11 11 10 11 13 11 11 13 12 11 11 11 10 10 10 10 10 11 10 10 9 8 8 8 9 8 7 7 6 6 7 7 6 6 6 6 6 6 6 4 5 5 5 6 5 5 6 6 6 6 6 6 5 4 3 3 3 3 4 4 3 5 5 5 5 7 5 5 5 4
3 2 1 5 4 8 2 3 6 5 2 8 9 9 6 6 6 5 7 8 9 9 9 9 9 10 10 11 11 12 12 14 12 13 13 13 13 11 11 10 10 10 10 11 11 11 11 11 10 10 9 9 8 8 7 8 8 6 5 8 8 7 6 7 6 6 5 5 6 5 5 5 5 6 6 6 6 6 6 5 4 4 3 3 4 5 5 5 5 5 3 2 4 5 4 5 4
4 5 4 8 3 9 3 2 2 6 5 3 5 5 10 11 9 4 4 8 13 13 11 10 11 11 10 12 12 13 13 9 7 8 11 12 11 12 10 9 9 11 10 11 12 13 12 12 12 11 8 9 9 9 9 8 8 8 8 7 6 6 6 7 7 6 7 5 5 6 5 5 6 6 6 6 6 6 5 4 4 4 3 4 4 5 5 5 5 4 3 3 4 4 4 0 1
3 4 3 5 7 6 5 2 1 3 1 6 1 5 11 11 9 5 7 9 9 12 14 14 13 12 11 11 12 12 10 10 9 11 12 12 14 13 11 10 10 13 12 13 13 12 11 11 10 9 9 9 9 9 8 8 7 7 7 5 7 4 4 5 5 4 4 5 5 6 6 5 6 5 6 5 5 5 5 4 5 4 4 4 4 5 5 6 5 5 5 4 3 3 3 1 1
5 4 3 8 4 2 7 2 2 1 3 2 1 4 8 6 5 10 9 10 6 9 14 12 12 14 14 14 13 13 13 11 12 12 13 13 13 12 12 11 11 10 10 10 10 12 10 10 9 10 10 10 9 9 9 9 9 7 6 5 5 5 4 4 4 4 4 5 6 6 5 5 6 6 6 6 5 5 5 5 4 4 5 4 4 5 5 5 4 4 4 5 3 3 1 1 1
4 5 6 8 7 5 7 4 0 1 2 2 2 3 7 6 6 5 6 8 5 6 8 10 10 11 13 12 11 13 15 14 13 12 12 13 13 13 13 13 11 11 11 11 11 11 10 13 12 12 10 10 9 10 10 8 6 5 4 3 3 3 1 3 3 4 5 5 4 4 6 6 6 6 6 6 6 6 5 5 5 5 5 4 4 4 5 6 5 4 5 4 5 3 3 2 2
5 6 12 13 11 6 2 2 4 2 3 5 2 3 5 3 4 9 2 2 8 6 9 12 12 11 9 11 13 11 12 12 14 14 14 14 14 13 12 12 12 12 12 12 12 13 12 11 11 11 9 9 9 10 9 8 8 8 7 6 6 5 6 5 7 7 5 5 7 5 5 6 6 6 5 6 6 5 6 6 5 5 5 4 4 5 5 4 4 4 5 6 6 5 3 3 2
1 8 5 10 9 6 4 4 2 2 4 4 1 6 6 6 3 4 4 5 9 4 10 12 12 12 12 12 12 12 12 11 11 11 11 12 13 13 13 13 14 13 13 12 11 12 13 11 12 12 11 10 10 9 10 8 8 7 9 9 9 8 8 7 5 5 5 5 4 5 5 5 6 6 6 6 6 6 5 6 6 6 6 5 4 4 5 5 5 5 3 4 6 4 4 3 4
5 8 0 4 3 4 6 7 9 4 1 1 1 2 2 6 9 2 3 4 6 6 8 10 11 12 14 12 13 13 13 12 12 12 13 14 14 15 15 15 14 14 13 11 11 11 12 12 12 12 10 10 9 9 10 10 10 9 9 9 8 8 8 7 6 6 5 4 5 5 4 5 5 6 6 6 6 6 6 6 6 5 5 5 4 5 6 6 4 2 4 4 4 5 5 4 4
7 8 5 5 6 7 4 8 5 1 0 6 1 0 0 3 8 3 1 2 5 10 11 12 13 13 14 13 13 14 14 14 13 12 13 14 14 15 15 14 15 14 12 12 12 13 13 12 12 11 10 10 9 11 11 11 10 10 10 8 8 7 7 6 5 4 5 4 6 4 5 5 5 6 6 7 7 7 6 6 6 6 5 5 4 5 5 5 5 5 4 3 5 4 4 4 2
8 6 6 3 3 3 3 5 5 0 2 5 4 4 2 6 6 4 1 1 6 10 14 15 15 15 14 13 13 13 12 11 13 14 14 14 15 15 15 15 14 13 13 13 13 11 11 10 11 12 11 10 9 11 11 11 11 9 8 8 9 7 6 5 4 5 5 5 6 6 5 5 5 5 6 7 7 7 7 6 6 7 7 5 4 5 5 5 4 5 5 6 5 4 4 4 5
1 5 6 3 7 4 4 5 4 5 1 7 7 9 5 4 6 6 3 7 9 9 4 5 7 9 10 12 14 13 12 12 12 12 13 14 14 15 13 14 14 13 11 12 11 11 11 11 12 12 13 10 10 11 11 12 11 9 9 10 10 9 7 6 5 5 5 5 6 6 6 6 5 5 4 5 6 6 6 5 5 6 5 5 5 5 5 5 5 4 4 5 5 5 4 5 4
1 1 0 2 1 5 5 3 4 2 3 9 1 10 5 5 6 6 9 7 3 4 7 8 10 13 14 12 11 13 13 12 12 12 12 12 11 11 12 13 13 13 11 11 11 11 11 11 11 13 10 10 9 10 10 10 10 10 9 10 10 9 8 7 8 8 7 7 7 7 6 5 5 4 4 4 5 5 5 5 5 5 6 6 6 5 5 5 5 4 4 4 5 4 3 3 3
4 2 5 1 3 2 1 2 0 4 6 2 2 9 2 6 11 11 8 7 7 6 7 8 10 12 13 12 12 11 12 12 12 12 12 12 13 13 13 13 12 11 12 13 13 12 12 11 13 13 12 11 10 10 11 11 10 10 10 10 10 8 8 8 8 9 7 7 7 6 5 6 5 5 5 5 5 6 5 6 6 6 6 6 5 5 5 6 5 5 5 5 4 4 4 4 4
5 1 3 2 0 0 1 2 1 3 7 2 3 1 2 4 8 10 14 15 11 9 10 9 9 12 13 13 11 11 12 13 13 13 12 13 13 13 14 13 13 12 13 14 13 12 11 11 12 13 13 11 10 9 10 10 11 11 11 10 10 9 9 9 9 9 8 7 7 7 7 7 7 7 6 7 7 6 6 7 7 7 6 6 6 6 6 6 6 5 5 5 5 5 3 5 5
3 1 2 3 3 0 1 1 1 4 5 2 1 2 4 0 3 2 7 6 7 7 6 7 7 7 9 9 9 10 12 11 11 11 12 13 13 14 13 13 12 13 14 13 12 11 11 11 11 12 10 7 6 8 9 11 11 11 10 10 9 8 9 9 8 8 7 7 6 6 7 6 6 6 7 7 6 7 7 6 8 7 7 7 6 6 6 6 6 5 5 6 5 5 5 4 5
2 2 1 6 0 6 1 4 2 2 2 1 1 3 4 5 3 5 3 7 5 5 5 4 4 4 6 8 10 10 9 10 10 10 10 11 12 12 12 11 12 12 13 12 13 12 11 12 10 6 10 7 2 2 5 6 7 7 8 9 10 8 7 7 6 6 7 7 7 7 7 6 6 6 6 6 7 7 7 7 7 7 7 7 7 7 7 6 6 6 6 5 6 3 5 6 6
2 2 0 3 5 5 0 1 1 1 3 5 1 6 6 7 6 3 4 4 4 5 3 1 1 3 6 9 10 11 11 10 10 11 11 11 10 11 12 12 11 11 11 12 12 13 12 7 14 13 9 11 12 12 8 6 6 6 6 7 7 8 9 9 8 8 7 6 5 6 6 6 6 6 6 6 6 7 7 7 7 7 7 7 7 7 7 7 6 6 6 6 6 5 5 7 6
3 1 4 1 1 3 2 1 2 3 2 6 1 1 6 5 5 5 7 5 5 5 4 1 4 6 8 7 8 10 11 11 11 12 12 14 13 12 11 11 12 13 13 13 10 8 17 17 15 8 8 13 11 9 8 9 10 11 10 10 10 10 10 9 9 8 7 6 6 6 5 5 6 6 6 6 7 7 7 8 7 8 7 6 7 6 6 6 5 4 5 5 5 4 5 5 5
3 4 1 2 1 1 3 1 2 2 4 4 3 1 4 3 6 4 6 4 7 5 4 1 3 5 5 4 5 6 6 6 8 10 10 10 11 13 13 13 13 13 13 10 16 18 15 16 17 19 18 16 15 12 11 10 10 8 8 11 12 11 9 8 8 7 7 7 7 6 6 7 7 6 7 6 6 6 6 7 7 7 6 7 6 6 7 6 6 6 6 5 5 5 5 6 6
1 1 4 1 6 3 1 1 1 3 3 2 6 2 3 5 5 3 5 5 5 6 2 5 3 3 3 4 5 8 9 9 9 10 11 12 12 12 13 13 13 12 9 14 16 15 17 16 16 15 15 14 12 10 9 10 9 8 8 7 8 7 8 8 7 7 6 6 6 6 6 7 8 6 7 7 6 6 7 8 7 8 8 8 8 8 7 6 5 5 5 5 4 5 6 7 6
5 5 2 3 2 2 2 0 1 3 3 2 1 3 4 7 5 3 5 6 5 4 4 2 3 1 3 4 6 6 7 8 9 10 10 11 11 11 11 12 12 7 11 14 15 17 17 16 16 16 16 14 13 13 11 11 9 9 8 6 7 7 8 7 6 6 5 6 5 6 7 7 5 6 5 6 7 8 8 8 9 8 9 8 8 8 7 7 6 6 6 6 6 5 6 6 6
1 0 2 6 4 4 2 6 2 1 1 3 2 4 7 9 1 4 6 8 5 4 2 0 2 2 3 4 4 6 7 6 7 8 9 10 10 10 10 9 7 11 13 14 13 13 13 14 14 14 14 14 14 12 11 11 9 8 9 8 7 7 6 5 6 5 5 5 5 6 7 6 6 6 5 6 8 8 7 8 7 8 8 9 8 8 7 6 6 7 6 4 5 6 6 8 6
Wind_Direction
187 100 86 105 68 104 105 338 82 326 60 340 315 26 254 35 127 77 78 108 111 223 102 117 122 141 151 192 171 128 305 149 252 147 207 210 131 144 149 132 131 138 151 152 168 151 137 133 134 131 129 129 129 127 125 122 119 116 114 112 110 109 109 110 109 106 104 102 100 97 95 96 98 97 99 97 96 95 95 92 84 79 83 79 75 77 77 71 66 61 58 55 50 39 33 27 16
81 83 74 78 349 50 274 128 104 351 39 54 296 111 266 309 54 142 152 174 184 151 133 123 108 79 47 98 129 135 50 35 18 101 72 123 123 135 149 139 140 145 147 150 158 143 138 138 135 134 133 133 131 130 126 121 118 118 116 116 113 113 114 113 112 108 108 105 100 96 98 98 98 98 99 98 93 93 86 85 89 85 73 64 67 66 66 63 57 53 49 46 38 29 19 12 6
22 88 42 59 29 88 119 43 311 43 71 66 279 209 316 358 271 122 181 192 129 117 118 114 103 72 98 39 70 46 197 64 116 112 96 135 139 163 151 139 139 139 141 150 143 134 135 141 137 135 136 135 133 134 128 123 123 121 120 118 116 117 118 114 113 115 114 111 105 106 108 107 107 108 105 101 97 93 89 82 71 71 60 49 54 59 56 52 50 43 36 34 29 23 12 3 358
32 206 149 67 288 25 77 27 92 121 108 193 316 286 192 194 265 214 158 102 124 121 127 132 127 300 113 67 147 76 79 129 188 136 136 163 191 150 147 140 137 134 136 141 139 136 138 145 138 139 136 136 137 135 133 130 127 125 123 119 118 121 121 118 118 120 114 112 113 118 118 115 112 105 102 98 95 89 89 86 85 68 56 47 46 51 48 39 38 36 25 15 18 12 4 358 353
321 334 134 121 101 321 107 142 129 95 107 195 134 274 235 211 263 67 91 126 137 131 135 129 84 14 103 114 137 122 217 104 136 185 128 130 119 141 141 137 135 137 139 142 138 138 146 147 142 141 140 141 141 140 138 136 132 129 125 122 124 125 124 124 126 123 120 121 126 124 125 119 110 106 99 95 90 89 89 86 71 57 46 45 45 49 47 28 19 20 11 3 2 3 358 352 348
350 59 27 122 258 198 46 40 9 54 213 153 92 268 229 211 135 114 112 106 102 85 110 81 137 154 54 10 17 136 137 151 172 147 151 145 143 143 136 135 135 139 141 140 140 141 146 150 145 144 146 146 146 145 142 139 137 135 131 130 129 130 132 131 132 130 131 130 130 134 128 119 109 108 105 97 89 84 83 79 68 57 38 30 35 37 41 31 13 11 7 356 353 356 352 346 342
247 53 348 24 49 66 134 110 71 151 318 154 196 269 186 138 136 119 119 100 37 73 6 112 116 97 77 186 36 73 251 146 146 163 146 141 140 141 139 136 138 138 139 138 139 140 153 151 149 147 151 153 152 148 146 144 143 140 137 136 135 138 139 136 134 133 133 133 133 137 127 117 116 112 118 98 87 78 79 68 69 56 37 28 28 28 29 21 9 3 2 355 349 351 348 343 339
49 141 315 102 307 50 30 153 73 173 356 166 223 266 152 131 133 118 137 92 159 137 78 135 131 93 138 55 134 127 83 20 96 110 120 139 141 139 140 140 139 141 140 137 137 144 156 152 151 153 156 158 155 153 151 148 147 145 143 141 142 144 143 140 137 136 139 139 141 140 142 132 123 125 142 115 77 77 63 64 57 44 29 22 20 16 16 7 360 358 356 352 348 346 345 339 337
357 96 68 65 37 28 59 32 306 243 284 337 320 227 24 140 127 128 112 95 94 90 131 155 230 95 125 104 88 120 86 108 105 119 135 137 143 142 141 142 140 142 140 139 143 154 157 156 156 159 161 160 159 158 155 152 151 149 147 146 146 149 149 146 143 147 150 149 149 147 149 140 129 131 196 260 7 32 52 52 48 26 25 17 8 5 2 355 355 352 351 347 345 343 340 335 334
334 59 302 111 132 64 35 329 65 256 256 285 254 28 130 130 118 126 115 113 142 117 90 84 95 107 141 107 116 136 145 124 125 132 138 141 141 140 139 140 141 142 141 144 149 155 156 158 161 162 163 162 163 162 158 156 155 154 152 150 151 152 151 152 150 154 154 155 152 154 151 143 129 138 208 264 16 14 41 52 25 2 2 352 348 348 355 360 349 345 345 344 340 339 337 333 331
298 10 120 69 35 71 102 256 301 325 329 317 40 57 108 127 111 120 92 111 119 130 136 117 62 125 131 109 63 93 134 130 139 150 147 145 146 144 139 138 140 145 144 146 152 152 159 159 163 164 164 165 166 165 162 161 159 158 157 157 157 155 156 156 159 159 160 163 164 164 172 162 176 213 262 307 4 7 24 33 14 354 357 349 338 336 341 348 350 345 346 343 338 335 333 331 329
332 11 10 99 115 149 228 139 318 294 307 359 54 23 329 65 84 122 132 130 145 137 160 143 164 147 89 122 148 141 144 140 144 147 150 146 141 139 135 134 137 142 145 146 150 154 155 158 162 167 167 167 168 169 167 164 161 161 162 164 162 163 163 163 165 166 170 176 178 180 186 191 196 218 249 335 333 350 352 354 7 350 352 343 332 330 333 337 342 342 341 339 334 330 331 329 327
93 90 67 77 161 54 214 74 301 316 352 326 156 331 28 69 158 168 162 122 132 151 200 177 144 137 112 136 133 145 152 146 141 147 148 145 138 134 131 133 132 135 139 140 147 156 154 156 156 159 167 171 171 171 169 165 161 164 165 166 168 169 170 171 170 169 168 177 182 193 196 203 199 225 14 342 321 331 350 348 346 340 340 344 332 327 331 331 336 335 335 334 330 327 328 327 323
105 180 118 132 41 125 131 261 326 120 270 249 259 268 29 165 231 169 141 140 177 175 301 135 134 114 89 118 146 155 156 147 147 149 144 138 134 132 131 132 134 138 139 147 157 161 158 152 155 160 167 171 166 174 170 168 167 170 171 172 172 174 180 183 180 177 174 176 181 199 201 215 222 238 245 289 302 313 319 328 328 330 336 337 333 329 331 331 336 337 332 329 325 324 326 324 320
55 140 78 109 51 66 262 111 195 139 227 227 266 83 345 257 153 156 158 157 185 114 98 107 173 112 194 171 171 176 158 150 149 146 137 131 130 129 132 131 135 140 144 152 155 163 160 147 153 162 166 162 161 163 161 174 174 176 178 180 180 183 189 193 191 187 187 188 198 213 215 224 235 233 233 252 277 289 299 306 319 330 332 334 332 329 331 331 335 336 329 323 322 322 322 319 317
140 79 80 100 99 128 241 187 73 88 222 162 254 136 272 292 167 147 235 140 126 114 133 155 217 157 163 181 163 151 147 146 143 139 133 132 129 128 131 137 143 146 150 153 159 166 157 151 151 162 158 159 160 159 167 175 180 183 184 186 188 191 194 200 199 200 198 201 211 223 228 232 243 246 240 249 268 272 285 296 296 329 329 328 328 327 328 330 332 333 330 323 321 322 319 316 314
62 83 44 31 148 141 226 173 137 191 259 259 236 102 157 99 341 52 115 115 119 157 190 118 188 27 151 143 136 134 143 143 141 136 135 137 141 145 141 143 145 151 160 161 162 163 156 161 164 161 148 158 155 163 165 172 188 186 187 189 191 194 198 202 207 205 206 209 213 223 232 232 214 29 2 23 285 328 304 306 313 318 316 318 319 320 325 325 326 329 329 327 326 325 321 316 317
51 54 112 59 201 144 214 186 181 53 8 285 344 168 118 113 60 95 91 48 104 114 65 47 45 52 103 118 126 135 141 146 148 144 149 149 154 156 160 159 159 168 168 163 167 163 163 172 172 160 145 159 161 164 164 171 188 189 171 188 189 195 200 205 210 203 210 174 228 223 243 222 169 163 47 341 19 321 334 315 319 323 324 316 318 318 326 335 334 338 338 326 321 318 318 320 320
95 138 83 221 185 228 169 189 153 129 263 248 262 168 167 203 130 181 83 127 132 95 46 74 78 80 99 121 132 141 147 148 154 153 154 158 163 165 165 164 170 167 173 171 169 170 172 170 167 167 167 163 162 167 163 162 186 153 165 172 178 197 194 205 201 197 169 174 233 319 139 59 162 199 145 215 213 269 277 287 299 304 322 355 347 341 351 343 338 337 328 323 319 318 320 309 309
218 117 336 263 215 245 210 175 179 196 202 320 349 334 155 254 120 113 130 152 158 157 135 87 122 132 134 136 142 146 152 155 158 159 157 161 166 168 167 171 171 178 176 178 175 173 172 179 177 176 173 165 166 166 159 167 178 151 149 155 166 169 187 181 175 162 164 168 160 77 166 198 213 161 259 269 287 3 4 347 336 342 349 347 339 347 341 339 333 330 325 325 322 316 311 307 309
229 77 171 242 239 110 232 200 216 204 189 279 17 307 24 199 160 130 131 123 219 242 197 163 169 153 149 151 149 151 153 159 162 164 164 166 168 171 172 176 175 174 174 164 170 183 178 179 177 175 167 164 162 165 162 173 168 142 130 147 149 155 165 145 152 149 171 157 107 163 201 214 179 131 40 21 5 342 356 352 6 1 356 344 339 328 329 323 329 319 323 326 306 311 311 304 309
117 205 192 213 79 305 245 192 127 165 215 27 316 100 221 50 102 127 150 154 201 203 204 198 152 152 152 157 156 157 159 163 168 169 171 173 173 174 168 170 167 168 164 177 184 182 183 180 175 174 161 167 173 171 171 178 161 162 149 150 144 139 153 161 153 161 168 140 150 193 186 209 199 228 350 24 349 339 326 329 346 4 347 329 326 311 306 322 314 312 318 314 309 307 298 295 297
58 305 260 202 205 213 270 149 187 157 115 212 270 229 334 157 235 182 170 190 236 214 146 150 158 159 157 152 153 162 165 168 169 174 175 175 176 176 177 172 171 175 177 185 178 184 179 173 171 178 179 170 175 165 150 160 161 165 152 149 151 168 150 157 173 168 171 151 175 202 194 200 224 241 282 330 312 350 299 312 296 327 326 320 318 308 304 312 309 310 309 308 302 303 301 298 297
112 235 273 258 173 226 173 197 148 165 125 212 245 338 241 198 200 166 190 178 188 134 137 137 140 142 148 154 165 163 170 173 176 174 177 179 176 175 175 172 172 167 177 181 185 182 183 174 172 180 178 174 175 161 158 170 158 159 174 179 171 180 162 177 175 176 162 171 183 218 220 179 216 232 247 254 260 195 274 287 294 305 315 312 314 304 301 307 305 302 303 307 307 308 305 304 308
158 265 227 221 60 270 317 245 144 161 219 279 330 304 253 201 182 119 235 187 124 124 123 132 138 145 155 158 162 162 165 173 174 176 174 177 173 167 166 167 171 171 185 185 183 184 188 181 180 187 181 179 171 165 176 173 165 166 171 180 182 190 173 183 173 159 178 184 196 210 215 205 212 234 246 243 208 255 268 289 299 303 309 302 305 299 299 305 304 304 304 302 303 304 302 301 311
196 215 149 84 153 1 39 70 61 115 266 169 74 275 292 243 274 266 286 142 138 129 130 135 141 148 159 168 167 165 168 173 174 176 178 171 170 170 175 176 176 184 190 182 181 189 183 180 185 187 181 178 172 170 177 175 180 183 189 192 185 190 180 177 166 172 179 186 200 203 220 214 213 227 239 229 231 263 284 297 299 304 305 300 296 293 298 299 299 303 301 299 302 307 302 301 311
176 134 142 123 324 105 25 174 309 79 231 196 186 303 295 331 88 277 45 130 127 128 135 144 148 157 162 167 170 172 170 174 177 172 168 175 177 181 178 177 185 190 181 188 188 186 181 180 188 186 184 179 170 180 180 186 178 190 196 190 186 193 182 168 175 175 179 191 201 203 211 228 228 224 237 234 235 261 284 292 296 300 296 289 288 287 288 289 292 283 291 295 304 305 296 297 301
95 125 100 46 352 214 88 11 285 38 284 169 163 261 258 306 113 228 166 144 140 135 143 151 154 158 163 167 170 173 177 178 172 173 179 179 185 183 182 183 187 185 187 193 191 180 181 188 187 187 186 181 177 185 190 190 190 192 190 185 195 184 179 181 182 174 200 201 195 205 214 214 230 222 224 236 236 250 272 287 293 294 291 290 282 279 285 285 279 278 281 283 286 286 290 295 296
109 109 120 313 7 353 235 207 218 134 262 158 180 335 305 185 217 240 154 143 144 142 150 157 159 161 164 167 170 176 182 179 180 184 190 189 184 185 189 188 184 187 196 192 186 182 188 186 186 188 185 183 184 189 191 192 190 190 189 193 190 190 193 191 194 193 197 203 203 205 216 216 214 225 221 226 245 239 260 273 286 288 290 290 283 281 283 281 281 286 290 287 284 277 287 293 298
106 44 116 354 359 322 286 172 62 139 251 143 348 267 261 245 232 177 159 141 136 138 153 162 163 164 167 168 176 181 180 181 188 191 189 191 191 190 193 190 188 189 187 189 184 191 188 186 187 184 187 187 191 191 191 192 192 190 196 193 192 191 195 196 199 183 197 202 207 212 218 218 218 207 220 220 224 245 259 257 269 278 279 278 273 270 270 274 278 287 293 307 303 307 303 299 311
139 257 64 356 3 277 296 201 170 142 139 161 101 221 279 278 275 207 169 151 150 155 164 167 167 171 173 173 177 184 187 188 192 193 193 193 194 196 196 189 190 189 184 188 193 193 187 187 184 188 187 191 191 194 195 195 190 192 193 190 192 191 194 198 196 201 204 195 198 218 217 216 221 213 215 219 219 231 250 259 255 264 271 269 267 241 251 265 264 276 289 297 307 300 290 292 294
16 34 306 320 157 276 302 248 168 174 342 59 111 279 250 261 268 190 169 164 154 155 168 171 171 177 181 179 183 187 190 189 193 197 197 198 196 198 197 192 189 188 188 190 193 188 192 189 186 187 185 190 194 195 194 191 192 194 194 193 190 185 194 198 199 198 193 191 206 217 213 221 222 220 221 207 226 231 240 255 258 263 262 250 246 233 235 260 265 266 257 262 307 298 309 301 303
355 86 271 274 301 266 332 244 215 163 123 348 177 218 322 323 304 187 174 167 169 158 171 176 177 180 182 185 188 192 191 194 197 198 199 197 201 201 201 197 189 191 188 186 188 188 191 190 188 189 187 190 194 195 191 187 189 195 195 195 193 192 199 201 194 184 193 198 205 215 213 218 224 223 221 211 220 232 238 246 258 258 250 233 244 242 237 249 253 267 261 238 213 274 296 295 300
317 8 223 206 193 283 285 298 233 225 133 198 319 220 233 229 334 140 177 177 174 168 176 182 181 182 186 186 190 192 198 197 200 200 199 197 198 200 201 201 194 190 190 188 187 188 189 188 189 192 190 189 191 191 189 187 194 193 191 192 196 200 202 198 189 186 193 198 205 216 213 214 222 221 220 216 216 229 241 247 259 257 236 234 245 249 246 234 240 242 272 254 223 235 275 284 289
262 297 321 311 290 217 250 307 250 143 238 181 174 239 268 263 245 172 190 190 184 187 182 185 186 186 185 190 191 194 198 203 207 201 197 196 197 197 199 199 193 189 192 189 186 188 186 187 188 191 188 187 190 187 185 187 190 193 191 192 199 200 201 196 187 200 200 194 207 212 213 217 222 222 218 213 218 231 239 244 252 240 233 239 248 258 254 236 238 232 245 277 254 230 256 264 270
255 240 245 231 305 272 210 238 253 176 175 223 186 217 243 258 256 219 198 193 196 203 193 191 192 190 189 191 194 195 198 208 208 201 198 197 197 194 196 193 192 189 189 185 183 182 185 185 186 187 187 184 180 179 176 180 185 191 194 194 203 207 202 204 203 205 187 199 206 204 208 209 214 223 215 210 219 230 235 240 241 239 228 226 248 258 257 226 234 241 250 252 285 290 247 243 227
312 7 275 265 257 281 246 264 244 184 90 224 216 228 251 265 251 213 197 177 202 206 198 195 198 195 196 196 196 199 201 209 202 197 196 198 199 196 193 189 189 186 185 182 180 183 184 184 180 189 185 177 174 174 178 178 183 188 196 200 203 202 199 203 206 208 202 201 203 205 205 212 208 219 223 211 215 228 233 230 229 244 231 232 231 242 241 240 221 216 242 251 265 277 278 189 185
266 288 295 290 201 279 266 221 176 207 180 280 222 225 250 248 257 217 206 174 200 204 204 201 199 202 201 200 201 201 208 210 191 196 200 200 201 199 192 188 181 181 188 181 186 186 185 182 186 187 178 179 180 180 181 184 188 190 187 196 193 195 195 201 211 209 211 201 202 205 206 208 207 210 220 212 219 212 222 226 225 235 226 230 233 240 249 238 236 218 213 271 207 231 259 302 106
277 242 283 314 274 234 292 1 1 205 166 271 186 201 247 249 242 233 182 201 208 201 201 201 194 199 205 205 206 205 204 205 194 198 194 197 198 196 193 192 189 189 184 186 188 182 182 185 189 180 182 181 184 182 180 189 190 191 188 178 185 182 196 204 204 197 193 202 202 204 206 202 204 211 211 210 204 208 212 215 229 224 226 224 246 257 251 251 224 222 190 208 265 220 255 271 169
259 279 290 264 247 360 301 311 60 244 154 295 209 215 277 281 244 234 215 195 210 204 202 206 199 200 201 203 200 201 203 201 198 197 195 196 196 193 193 193 193 188 183 186 183 185 184 188 184 184 185 186 185 186 187 191 189 185 187 170 175 179 183 195 203 183 187 196 210 202 203 200 200 210 203 208 213 211 205 217 228 230 238 215 226 261 262 252 234 228 192 208 201 258 339 298 110
261 221 233 261 271 220 198 261 111 14 302 94 76 344 303 265 255 256 240 207 202 210 208 210 213 214 209 206 203 200 199 198 199 197 195 193 193 193 192 194 186 187 188 186 184 185 189 189 187 185 184 186 188 187 187 178 169 160 160 121 135 155 88 152 170 218 202 205 211 194 210 199 199 205 204 203 209 210 210 214 220 237 240 233 223 237 244 240 233 219 195 187 195 188 224 275 321
302 235 211 234 247 253 142 151 98 30 308 233 141 21 299 301 284 248 309 130 212 207 189 209 209 209 213 215 211 204 204 197 194 195 194 191 191 192 193 189 187 191 192 191 188 188 187 188 185 184 183 184 187 187 179 167 178 172 164 169 178 185 201 190 204 212 199 201 214 206 196 195 198 204 202 206 208 206 210 212 216 227 231 231 225 235 246 255 247 219 197 191 199 208 171 154 202
312 273 187 222 235 240 173 178 100 279 250 299 226 163 266 327 298 253 223 210 224 204 202 208 205 204 204 211 209 206 200 197 198 196 193 190 193 191 191 190 191 191 196 190 187 189 190 186 185 183 185 187 185 181 174 173 176 179 184 191 194 193 198 214 213 215 206 218 214 206 207 193 197 202 208 204 209 211 212 217 217 221 226 220 223 236 252 240 231 215 179 186 207 166 144 166 189
238 252 215 182 200 205 201 176 186 218 213 5 1 122 189 319 287 279 290 230 236 237 232 220 210 204 205 205 205 204 202 196 189 192 192 192 191 191 192 193 191 196 192 185 189 187 189 187 183 186 187 186 184 174 177 179 181 185 189 198 199 200 199 208 203 216 217 218 207 220 202 209 203 205 212 210 208 208 212 218 217 220 226 221 206 218 229 238 232 230 190 215 182 175 174 169 207
225 273 275 260 221 234 192 174 185 174 199 286 329 223 311 257 265 320 115 194 261 243 227 222 217 208 205 201 200 203 201 197 190 190 192 191 192 194 194 192 197 193 185 186 189 190 189 186 184 184 187 185 181 177 180 185 186 187 191 194 203 209 202 204 199 208 212 207 222 226 214 213 207 211 212 214 212 210 210 214 211 216 220 225 216 219 234 231 212 181 177 172 199 208 195 184 155
268 259 295 288 12 43 140 157 107 48 87 265 229 186 180 276 273 331 351 244 264 241 226 220 211 208 203 198 197 197 198 200 199 194 192 193 193 193 193 194 191 191 190 190 190 186 185 181 182 182 189 186 181 182 183 186 189 186 190 196 204 209 200 194 180 202 207 193 217 221 223 218 213 209 213 217 219 215 217 213 208 210 218 224 220 218 228 232 224 201 198 200 209 210 223 193 197
285 347 305 8 35 49 37 64 103 65 257 253 213 189 162 277 269 220 162 224 209 235 262 236 217 219 215 202 190 188 190 194 198 197 196 196 194 192 188 189 192 190 188 187 185 185 182 182 184 186 192 186 181 184 182 188 189 187 194 197 202 207 202 189 187 208 202 192 213 218 211 219 212 214 205 215 219 218 219 217 215 214 214 220 224 215 220 219 218 211 210 198 201 203 202 208 228
168 246 331 48 10 9 38 353 38 99 273 262 210 182 145 194 291 280 236 255 226 193 221 216 205 205 204 203 195 186 184 188 192 194 196 195 191 191 187 191 188 188 182 183 186 182 182 185 183 190 189 186 185 185 186 190 189 194 197 196 201 207 198 196 201 210 202 202 206 215 214 212 217 217 210 211 220 220 222 226 223 220 219 216 222 215 219 223 224 200 184 199 212 214 209 193 202
70 61 41 124 276 36 298 18 85 206 204 257 116 125 67 251 236 255 274 259 266 227 227 222 206 208 204 200 193 182 183 182 186 191 191 189 188 186 187 190 185 181 184 184 184 183 184 183 184 185 191 188 187 184 189 191 191 197 197 197 201 200 199 201 205 211 203 203 204 214 206 213 210 208 208 208 219 213 216 227 226 223 228 223 222 218 226 224 220 212 203 208 207 202 209 200 192
26 276 132 84 189 77 229 274 224 311 285 261 170 259 267 246 287 242 247 264 256 252 233 226 206 200 199 196 186 181 182 184 185 185 187 187 187 187 187 185 183 184 186 186 184 182 181 183 182 186 193 186 184 185 191 192 198 199 198 197 197 193 198 202 207 210 207 202 197 209 205 206 206 207 200 208 212 202 207 217 219 221 222 224 219 218 221 222 213 213 216 215 219 226 214 212 221
263 162 154 183 132 150 300 215 228 232 225 315 299 109 229 110 246 229 216 253 297 284 262 240 218 199 194 185 180 181 180 183 181 182 184 186 187 184 185 184 183 184 185 186 185 184 180 181 180 188 183 179 182 195 194 197 201 202 200 201 197 195 199 202 208 209 203 199 199 203 212 207 206 211 209 216 205 201 207 213 216 219 220 220 220 220 217 217 216 216 216 225 229 220 220 213 226
278 121 42 65 352 159 240 204 172 269 325 346 190 216 190 187 246 268 289 300 303 304 273 237 200 160 151 151 171 180 183 178 176 177 183 186 184 183 182 184 184 184 184 184 185 182 181 185 173 112 70 65 79 221 221 216 222 217 208 201 202 200 205 204 208 210 210 202 200 202 208 210 214 211 217 214 210 199 206 212 214 221 222 219 218 220 219 214 209 207 215 212 230 211 215 214 224
273 53 221 205 176 126 84 22 344 93 45 259 196 317 295 298 326 299 334 348 334 355 12 92 99 143 154 172 175 177 177 175 174 174 177 179 183 185 182 182 183 183 181 186 186 184 183 130 80 90 152 188 196 199 191 180 189 200 214 216 210 205 205 204 204 208 205 201 199 201 205 208 212 214 217 215 216 208 211 212 216 223 225 224 223 222 218 220 213 209 210 213 224 223 220 222 218
85 67 244 288 104 120 126 256 338 54 177 267 28 224 303 17 291 306 339 356 330 350 340 333 150 156 178 181 172 175 179 180 177 173 174 178 177 179 182 183 182 185 186 187 174 98 71 79 106 137 198 218 219 204 195 197 198 200 197 198 204 208 208 208 206 204 198 192 200 202 204 208 211 211 214 218 218 215 215 215 217 225 227 223 225 223 219 221 205 215 218 222 228 219 226 236 229
140 183 164 109 285 258 326 90 322 318 289 290 314 295 261 192 255 317 300 322 320 317 324 312 181 183 185 158 162 159 155 154 169 171 174 179 179 178 179 184 186 187 186 154 95 100 126 145 161 177 194 206 207 205 203 208 209 211 203 201 200 204 208 212 211 208 196 197 197 194 201 211 213 213 215 219 217 219 217 219 217 221 219 220 216 216 214 214 205 216 214 219 214 203 219 234 234
14 19 19 5 92 138 86 232 175 117 271 40 291 23 257 221 224 207 260 271 278 279 295 253 238 177 165 161 160 161 165 169 174 176 180 180 181 183 179 179 182 184 161 116 135 149 157 163 172 185 196 202 206 204 201 207 208 213 217 209 208 205 205 208 208 204 205 204 201 197 204 209 212 205 210 212 216 219 216 216 211 216 216 214 212 216 207 212 203 221 225 226 220 195 210 229 240
332 21 27 358 18 221 114 117 164 234 197 188 230 330 285 265 223 200 264 286 281 244 265 297 280 229 160 174 165 171 171 171 177 177 179 181 182 183 184 182 181 146 117 141 157 167 171 173 177 182 192 198 203 205 200 210 201 207 211 208 207 202 205 204 202 201 208 210 206 208 212 217 210 214 200 202 216 222 221 215 215 213 213 210 209 212 205 202 202 218 222 226 231 205 214 231 231
164 174 159 146 86 45 56 293 358 68 181 235 130 268 263 272 174 249 297 301 306 256 220 161 279 220 172 170 168 166 169 177 177 179 177 181 183 184 183 180 139 127 147 158 168 170 175 179 178 182 191 196 201 203 202 209 205 205 202 200 203 206 205 196 197 181 190 194 209 216 218 213 212 216 196 208 218 223 222 219 214 216 216 213 214 216 204 194 206 218 224 229 228 223 233 246 244